PSTDB SBSI-SBCG

Flight info

Callsign PSTDB
Flight time 2h 3m
Altitude 26000
Route EVPU2A DORNO Z85 CIA A430 KOXAL
Aircraft TBM8/L-SDFGRWY/S

Departure

Time 2026-04-19 11:29
Airport Presidente João Batista Figueiredo Airport (SBSI)

Arrival

Time 2026-04-19 13:33
Airport Campo Grande Airport (SBCG)
Time Latitude Longitude Altitude Speed Heading
2026-04-19 10:58 -11.87956 -55.58281 1239 ft 0 kts 14°
2026-04-19 11:24 -11.87944 -55.58278 1239 ft 3 kts
2026-04-19 11:24 -11.87930 -55.58300 1239 ft 6 kts 285°
2026-04-19 11:24 -11.87903 -55.58306 1239 ft 6 kts 16°
2026-04-19 11:25 -11.87855 -55.58312 1238 ft 8 kts 307°
2026-04-19 11:25 -11.87841 -55.58356 1247 ft 6 kts 284°
2026-04-19 11:25 -11.87838 -55.58370 1236 ft 0 kts 284°
2026-04-19 11:26 -11.87826 -55.58414 1231 ft 10 kts 286°
2026-04-19 11:26 -11.87827 -55.58448 1229 ft 0 kts 195°
2026-04-19 11:28 -11.87959 -55.58484 1239 ft 44 kts 194°
2026-04-19 11:28 -11.88409 -55.58605 1236 ft 89 kts 194°
2026-04-19 11:28 -11.89116 -55.58802 1337 ft 117 kts 194°
2026-04-19 11:29 -11.89933 -55.59027 1622 ft 130 kts 193°
2026-04-19 11:29 -11.90890 -55.59278 1867 ft 146 kts 196°
2026-04-19 11:29 -11.91881 -55.59298 2314 ft 145 kts 160°
2026-04-19 11:29 -11.92720 -55.58755 2763 ft 144 kts 125°
2026-04-19 11:30 -11.93471 -55.58129 3182 ft 146 kts 165°
2026-04-19 11:30 -11.94442 -55.58376 3603 ft 152 kts 218°
2026-04-19 11:30 -11.95209 -55.59139 4016 ft 155 kts 222°
2026-04-19 11:30 -11.96076 -55.59785 4434 ft 155 kts 202°
2026-04-19 11:31 -11.97112 -55.60058 4845 ft 155 kts 186°
2026-04-19 11:31 -11.98177 -55.60239 5293 ft 155 kts 187°
2026-04-19 11:31 -11.99251 -55.60421 5732 ft 157 kts 187°
2026-04-19 11:31 -12.00331 -55.60603 6179 ft 158 kts 187°
2026-04-19 11:32 -12.01422 -55.60785 6606 ft 159 kts 188°
2026-04-19 11:32 -12.02515 -55.60969 7025 ft 160 kts 188°
2026-04-19 11:32 -12.03615 -55.61153 7447 ft 161 kts 188°
2026-04-19 11:32 -12.04720 -55.61338 7863 ft 161 kts 188°
2026-04-19 11:33 -12.05818 -55.61522 8269 ft 162 kts 187°
2026-04-19 11:33 -12.06934 -55.61708 8695 ft 163 kts 187°
2026-04-19 11:33 -12.08057 -55.61896 9116 ft 164 kts 187°
2026-04-19 11:33 -12.09184 -55.62086 9534 ft 165 kts 187°
2026-04-19 11:34 -12.10317 -55.62275 9938 ft 165 kts 187°
2026-04-19 11:34 -12.11455 -55.62465 10307 ft 167 kts 187°
2026-04-19 11:34 -12.12609 -55.62658 10671 ft 168 kts 188°
2026-04-19 11:34 -12.13769 -55.62853 11043 ft 169 kts 187°
2026-04-19 11:35 -12.14932 -55.63048 11413 ft 170 kts 188°
2026-04-19 11:35 -12.16104 -55.63244 11781 ft 171 kts 188°
2026-04-19 11:35 -12.17283 -55.63442 12149 ft 172 kts 188°
2026-04-19 11:35 -12.18467 -55.63639 12517 ft 173 kts 188°
2026-04-19 11:36 -12.19660 -55.63840 12888 ft 174 kts 188°
2026-04-19 11:36 -12.20862 -55.64041 13256 ft 175 kts 188°
2026-04-19 11:36 -12.22055 -55.64242 13618 ft 176 kts 188°
2026-04-19 11:36 -12.23272 -55.64445 13953 ft 178 kts 188°
2026-04-19 11:37 -12.24497 -55.64650 14268 ft 179 kts 188°
2026-04-19 11:37 -12.25728 -55.64857 14583 ft 180 kts 188°
2026-04-19 11:37 -12.26968 -55.65064 14883 ft 182 kts 188°
2026-04-19 11:37 -12.28271 -55.65286 15006 ft 196 kts 188°
2026-04-19 11:38 -12.29660 -55.65525 15139 ft 209 kts 188°
2026-04-19 11:38 -12.31104 -55.65766 15434 ft 210 kts 188°
2026-04-19 11:38 -12.32550 -55.66004 15741 ft 211 kts 188°
2026-04-19 11:38 -12.34005 -55.66247 16040 ft 213 kts 188°
2026-04-19 11:39 -12.35468 -55.66492 16339 ft 214 kts 188°
2026-04-19 11:39 -12.36941 -55.66740 16644 ft 215 kts 188°
2026-04-19 11:39 -12.38421 -55.66989 16945 ft 216 kts 188°
2026-04-19 11:39 -12.39911 -55.67239 17242 ft 217 kts 188°
2026-04-19 11:40 -12.41408 -55.67490 17541 ft 219 kts 188°
2026-04-19 11:40 -12.42911 -55.67742 17834 ft 220 kts 188°
2026-04-19 11:40 -12.44431 -55.67997 18111 ft 222 kts 188°
2026-04-19 11:40 -12.45960 -55.68254 18379 ft 223 kts 188°
2026-04-19 11:41 -12.47476 -55.68509 18636 ft 223 kts 188°
2026-04-19 11:41 -12.49010 -55.68766 18901 ft 223 kts 188°
2026-04-19 11:41 -12.50544 -55.69024 19160 ft 224 kts 188°
2026-04-19 11:41 -12.52080 -55.69282 19420 ft 224 kts 188°
2026-04-19 11:42 -12.53618 -55.69540 19673 ft 224 kts 188°
2026-04-19 11:42 -12.55160 -55.69799 19926 ft 224 kts 188°
2026-04-19 11:42 -12.56701 -55.70058 20181 ft 225 kts 188°
2026-04-19 11:42 -12.58244 -55.70317 20434 ft 225 kts 188°
2026-04-19 11:43 -12.59790 -55.70577 20684 ft 225 kts 188°
2026-04-19 11:43 -12.61332 -55.70836 20993 ft 222 kts 188°
2026-04-19 11:43 -12.62837 -55.71088 21350 ft 216 kts 188°
2026-04-19 11:43 -12.64304 -55.71333 21708 ft 211 kts 188°
2026-04-19 11:44 -12.65735 -55.71573 22073 ft 205 kts 188°
2026-04-19 11:44 -12.67151 -55.71812 22315 ft 206 kts 188°
2026-04-19 11:44 -12.68563 -55.72050 22586 ft 205 kts 188°
2026-04-19 11:44 -12.69974 -55.72288 22829 ft 206 kts 188°
2026-04-19 11:45 -12.71387 -55.72526 23072 ft 206 kts 188°
2026-04-19 11:45 -12.72784 -55.72761 23312 ft 206 kts 188°
2026-04-19 11:45 -12.74203 -55.72999 23546 ft 206 kts 188°
2026-04-19 11:45 -12.75625 -55.73239 23742 ft 207 kts 188°
2026-04-19 11:46 -12.77051 -55.73479 23934 ft 207 kts 188°
2026-04-19 11:46 -12.78476 -55.73719 24122 ft 208 kts 188°
2026-04-19 11:46 -12.79905 -55.73959 24307 ft 209 kts 188°
2026-04-19 11:46 -12.81340 -55.74201 24493 ft 209 kts 188°
2026-04-19 11:47 -12.82779 -55.74443 24675 ft 210 kts 188°
2026-04-19 11:47 -12.84221 -55.74685 24857 ft 210 kts 189°
2026-04-19 11:47 -12.85669 -55.74929 25037 ft 211 kts 189°
2026-04-19 11:47 -12.87119 -55.75174 25217 ft 212 kts 189°
2026-04-19 11:48 -12.88556 -55.75416 25394 ft 212 kts 189°
2026-04-19 11:48 -12.90014 -55.75662 25571 ft 213 kts 189°
2026-04-19 11:48 -12.91479 -55.75908 25747 ft 213 kts 189°
2026-04-19 11:48 -12.92947 -55.76156 25922 ft 214 kts 189°
2026-04-19 11:49 -12.94439 -55.76407 25959 ft 222 kts 189°
2026-04-19 11:49 -12.95993 -55.76672 25967 ft 231 kts 189°
2026-04-19 11:49 -12.97606 -55.76945 25972 ft 239 kts 189°
2026-04-19 11:49 -12.99276 -55.77225 25972 ft 247 kts 189°
2026-04-19 11:50 -13.00995 -55.77515 25972 ft 254 kts 189°
2026-04-19 11:50 -13.02762 -55.77813 25972 ft 260 kts 189°
2026-04-19 11:50 -13.04573 -55.78119 25971 ft 266 kts 189°
2026-04-19 11:50 -13.06419 -55.78430 25971 ft 271 kts 189°
2026-04-19 11:51 -13.08297 -55.78747 25971 ft 275 kts 189°
2026-04-19 11:51 -13.10206 -55.79069 25969 ft 279 kts 189°
2026-04-19 11:51 -13.12138 -55.79396 25970 ft 283 kts 189°
2026-04-19 11:51 -13.14091 -55.79725 25968 ft 286 kts 189°
2026-04-19 11:52 -13.16063 -55.80058 25973 ft 288 kts 189°
2026-04-19 11:52 -13.18051 -55.80394 25973 ft 290 kts 189°
2026-04-19 11:52 -13.20055 -55.80732 25972 ft 292 kts 189°
2026-04-19 11:52 -13.22069 -55.81072 25971 ft 294 kts 189°
2026-04-19 11:53 -13.24066 -55.81410 25971 ft 295 kts 189°
2026-04-19 11:53 -13.26100 -55.81753 25973 ft 296 kts 189°
2026-04-19 11:53 -13.28140 -55.82098 25972 ft 298 kts 189°
2026-04-19 11:53 -13.29522 -55.82331 25972 ft 298 kts 189°
2026-04-19 11:54 -13.31575 -55.82678 25973 ft 299 kts 189°
2026-04-19 11:54 -13.33603 -55.83021 25973 ft 299 kts 189°
2026-04-19 11:54 -13.35659 -55.83368 25975 ft 300 kts 189°
2026-04-19 11:54 -13.37722 -55.83718 25972 ft 300 kts 189°
2026-04-19 11:55 -13.39786 -55.84066 25969 ft 301 kts 189°
2026-04-19 11:55 -13.41860 -55.84417 25969 ft 301 kts 189°
2026-04-19 11:55 -13.43932 -55.84768 25970 ft 302 kts 189°
2026-04-19 11:55 -13.46005 -55.85119 25970 ft 302 kts 189°
2026-04-19 11:56 -13.48080 -55.85470 25971 ft 302 kts 189°
2026-04-19 11:56 -13.50158 -55.85822 25971 ft 303 kts 189°
2026-04-19 11:56 -13.52237 -55.86173 25971 ft 303 kts 189°
2026-04-19 11:56 -13.54316 -55.86525 25971 ft 303 kts 189°
2026-04-19 11:57 -13.56395 -55.86878 25969 ft 303 kts 189°
2026-04-19 11:57 -13.58476 -55.87229 25969 ft 303 kts 189°
2026-04-19 11:57 -13.60528 -55.87577 25969 ft 303 kts 189°
2026-04-19 11:57 -13.62610 -55.87930 25969 ft 303 kts 189°
2026-04-19 11:58 -13.64689 -55.88282 25971 ft 303 kts 189°
2026-04-19 11:58 -13.66769 -55.88634 25969 ft 303 kts 190°
2026-04-19 11:58 -13.68851 -55.88988 25972 ft 303 kts 190°
2026-04-19 11:58 -13.70931 -55.89340 25971 ft 303 kts 190°
2026-04-19 11:59 -13.73015 -55.89694 25973 ft 303 kts 190°
2026-04-19 11:59 -13.75094 -55.90047 25971 ft 303 kts 190°
2026-04-19 11:59 -13.77176 -55.90400 25970 ft 303 kts 190°
2026-04-19 11:59 -13.79259 -55.90754 25970 ft 303 kts 190°
2026-04-19 12:00 -13.81338 -55.91106 25970 ft 303 kts 190°
2026-04-19 12:00 -13.83419 -55.91459 25970 ft 303 kts 190°
2026-04-19 12:00 -13.85500 -55.91813 25969 ft 303 kts 190°
2026-04-19 12:00 -13.87581 -55.92166 25969 ft 303 kts 190°
2026-04-19 12:01 -13.89662 -55.92519 25970 ft 303 kts 190°
2026-04-19 12:01 -13.91743 -55.92873 25969 ft 303 kts 190°
2026-04-19 12:01 -13.93823 -55.93226 25969 ft 303 kts 190°
2026-04-19 12:01 -13.95905 -55.93580 25972 ft 303 kts 190°
2026-04-19 12:02 -13.97956 -55.93929 25975 ft 303 kts 190°
2026-04-19 12:02 -14.00036 -55.94283 25972 ft 303 kts 190°
2026-04-19 12:02 -14.02117 -55.94636 25972 ft 303 kts 190°
2026-04-19 12:02 -14.04194 -55.94989 25972 ft 303 kts 190°
2026-04-19 12:03 -14.06274 -55.95343 25970 ft 303 kts 190°
2026-04-19 12:03 -14.08355 -55.95697 25970 ft 303 kts 190°
2026-04-19 12:03 -14.10435 -55.96051 25970 ft 303 kts 190°
2026-04-19 12:03 -14.12515 -55.96405 25970 ft 303 kts 190°
2026-04-19 12:04 -14.14599 -55.96760 25966 ft 303 kts 190°
2026-04-19 12:04 -14.16677 -55.97113 25965 ft 303 kts 190°
2026-04-19 12:04 -14.18761 -55.97468 25965 ft 303 kts 190°
2026-04-19 12:04 -14.20841 -55.97822 25965 ft 303 kts 190°
2026-04-19 12:05 -14.22921 -55.98177 25965 ft 303 kts 190°
2026-04-19 12:05 -14.25001 -55.98532 25966 ft 303 kts 190°
2026-04-19 12:05 -14.27081 -55.98886 25965 ft 303 kts 191°
2026-04-19 12:05 -14.29166 -55.99240 25965 ft 303 kts 191°
2026-04-19 12:06 -14.31245 -55.99595 25968 ft 303 kts 191°
2026-04-19 12:06 -14.33297 -55.99946 25968 ft 302 kts 191°
2026-04-19 12:06 -14.35371 -56.00299 25968 ft 302 kts 191°
2026-04-19 12:06 -14.37447 -56.00653 25968 ft 302 kts 191°
2026-04-19 12:07 -14.39522 -56.01007 25962 ft 302 kts 191°
2026-04-19 12:07 -14.41597 -56.01361 25962 ft 302 kts 191°
2026-04-19 12:07 -14.43673 -56.01715 25961 ft 302 kts 191°
2026-04-19 12:07 -14.45749 -56.02070 25961 ft 302 kts 191°
2026-04-19 12:08 -14.47825 -56.02424 25959 ft 302 kts 191°
2026-04-19 12:08 -14.49899 -56.02778 25959 ft 302 kts 191°
2026-04-19 12:08 -14.51978 -56.03133 25956 ft 302 kts 191°
2026-04-19 12:08 -14.54052 -56.03487 25956 ft 302 kts 191°
2026-04-19 12:09 -14.56126 -56.03842 25956 ft 302 kts 191°
2026-04-19 12:09 -14.58200 -56.04196 25959 ft 302 kts 191°
2026-04-19 12:09 -14.60274 -56.04550 25959 ft 302 kts 191°
2026-04-19 12:09 -14.62351 -56.04905 25959 ft 302 kts 191°
2026-04-19 12:10 -14.64419 -56.05259 25959 ft 302 kts 191°
2026-04-19 12:10 -14.66463 -56.05608 25959 ft 302 kts 191°
2026-04-19 12:10 -14.68531 -56.05963 25958 ft 302 kts 191°
2026-04-19 12:10 -14.70607 -56.06317 25958 ft 301 kts 191°
2026-04-19 12:11 -14.72675 -56.06671 25956 ft 301 kts 191°
2026-04-19 12:11 -14.74743 -56.07025 25956 ft 301 kts 191°
2026-04-19 12:11 -14.76809 -56.07378 25955 ft 301 kts 191°
2026-04-19 12:11 -14.78877 -56.07733 25955 ft 301 kts 191°
2026-04-19 12:12 -14.80944 -56.08087 25955 ft 301 kts 191°
2026-04-19 12:12 -14.83011 -56.08440 25955 ft 301 kts 191°
2026-04-19 12:12 -14.85075 -56.08794 25954 ft 301 kts 191°
2026-04-19 12:12 -14.87143 -56.09149 25954 ft 301 kts 191°
2026-04-19 12:13 -14.89178 -56.09497 25954 ft 300 kts 191°
2026-04-19 12:13 -14.91243 -56.09851 25955 ft 300 kts 191°
2026-04-19 12:13 -14.93304 -56.10205 25954 ft 300 kts 191°
2026-04-19 12:13 -14.95368 -56.10559 25953 ft 300 kts 191°
2026-04-19 12:14 -14.97428 -56.10912 25956 ft 300 kts 191°
2026-04-19 12:14 -14.99503 -56.11144 25949 ft 302 kts 182°
2026-04-19 12:14 -15.01601 -56.11117 25950 ft 301 kts 181°
2026-04-19 12:14 -15.03704 -56.11121 25950 ft 301 kts 182°
2026-04-19 12:15 -15.05802 -56.11137 25946 ft 301 kts 182°
2026-04-19 12:15 -15.07896 -56.11140 25946 ft 301 kts 182°
2026-04-19 12:15 -15.09991 -56.11138 25946 ft 301 kts 182°
2026-04-19 12:15 -15.12085 -56.11140 25944 ft 301 kts 182°
2026-04-19 12:16 -15.14181 -56.11145 25944 ft 301 kts 182°
2026-04-19 12:16 -15.16248 -56.11147 25945 ft 301 kts 182°
2026-04-19 12:16 -15.18336 -56.11149 25946 ft 301 kts 182°
2026-04-19 12:16 -15.20436 -56.11152 25948 ft 301 kts 182°
2026-04-19 12:17 -15.22530 -56.11155 25946 ft 301 kts 182°
2026-04-19 12:17 -15.24619 -56.11157 25944 ft 301 kts 182°
2026-04-19 12:17 -15.26712 -56.11160 25944 ft 300 kts 182°
2026-04-19 12:17 -15.28804 -56.11163 25943 ft 300 kts 182°
2026-04-19 12:18 -15.30892 -56.11166 25941 ft 300 kts 182°
2026-04-19 12:18 -15.32981 -56.11168 25941 ft 300 kts 182°
2026-04-19 12:18 -15.35068 -56.11171 25935 ft 300 kts 182°
2026-04-19 12:18 -15.37154 -56.11174 25935 ft 300 kts 182°
2026-04-19 12:19 -15.39239 -56.11176 25937 ft 299 kts 182°
2026-04-19 12:19 -15.41322 -56.11179 25936 ft 299 kts 182°
2026-04-19 12:19 -15.43408 -56.11182 25936 ft 299 kts 182°
2026-04-19 12:19 -15.45491 -56.11185 25937 ft 300 kts 182°
2026-04-19 12:20 -15.47578 -56.11187 25935 ft 300 kts 182°
2026-04-19 12:20 -15.49639 -56.11190 25933 ft 299 kts 182°
2026-04-19 12:20 -15.51727 -56.11193 25933 ft 299 kts 182°
2026-04-19 12:20 -15.53813 -56.11196 25933 ft 299 kts 182°
2026-04-19 12:21 -15.55900 -56.11198 25934 ft 299 kts 182°
2026-04-19 12:21 -15.57982 -56.11201 25933 ft 299 kts 182°
2026-04-19 12:21 -15.60062 -56.11203 25933 ft 299 kts 182°
2026-04-19 12:21 -15.62117 -56.11206 25933 ft 299 kts 182°
2026-04-19 12:22 -15.64203 -56.11209 25929 ft 299 kts 182°
2026-04-19 12:22 -15.66278 -56.11018 25930 ft 302 kts 169°
2026-04-19 12:22 -15.68306 -56.10417 25950 ft 301 kts 167°
2026-04-19 12:22 -15.70296 -56.09835 26109 ft 295 kts 167°
2026-04-19 12:23 -15.72253 -56.09275 26345 ft 287 kts 168°
2026-04-19 12:23 -15.74163 -56.08719 26577 ft 281 kts 168°
2026-04-19 12:23 -15.76006 -56.08177 26806 ft 275 kts 168°
2026-04-19 12:23 -15.77844 -56.07640 26931 ft 275 kts 168°
2026-04-19 12:24 -15.79707 -56.07100 26930 ft 279 kts 168°
2026-04-19 12:24 -15.81592 -56.06550 26930 ft 282 kts 168°
2026-04-19 12:24 -15.83495 -56.05994 26932 ft 285 kts 168°
2026-04-19 12:24 -15.85390 -56.05440 26935 ft 288 kts 168°
2026-04-19 12:25 -15.87333 -56.04872 26937 ft 290 kts 168°
2026-04-19 12:25 -15.89289 -56.04301 26939 ft 292 kts 168°
2026-04-19 12:25 -15.91237 -56.03732 26943 ft 294 kts 168°
2026-04-19 12:25 -15.93220 -56.03152 26938 ft 295 kts 168°
2026-04-19 12:26 -15.95208 -56.02571 26940 ft 296 kts 168°
2026-04-19 12:26 -15.97175 -56.01996 26941 ft 297 kts 168°
2026-04-19 12:26 -15.99171 -56.01413 26942 ft 298 kts 168°
2026-04-19 12:26 -16.01177 -56.00826 26943 ft 299 kts 168°
2026-04-19 12:27 -16.03183 -56.00239 26942 ft 299 kts 168°
2026-04-19 12:27 -16.05201 -55.99648 26944 ft 300 kts 168°
2026-04-19 12:27 -16.07195 -55.99065 26946 ft 301 kts 168°
2026-04-19 12:27 -16.09211 -55.98475 26944 ft 301 kts 168°
2026-04-19 12:28 -16.13262 -55.97288 26944 ft 302 kts 168°
2026-04-19 12:28 -16.15264 -55.96702 26941 ft 302 kts 168°
2026-04-19 12:28 -16.17295 -55.96107 26942 ft 302 kts 168°
2026-04-19 12:29 -16.19322 -55.95512 26944 ft 303 kts 168°
2026-04-19 12:29 -16.21357 -55.94917 26944 ft 303 kts 168°
2026-04-19 12:29 -16.23386 -55.94321 26943 ft 303 kts 168°
2026-04-19 12:29 -16.25417 -55.93725 26943 ft 303 kts 168°
2026-04-19 12:30 -16.27425 -55.93137 26941 ft 303 kts 168°
2026-04-19 12:30 -16.29458 -55.92540 26943 ft 303 kts 168°
2026-04-19 12:30 -16.31494 -55.91942 26946 ft 303 kts 168°
2026-04-19 12:30 -16.33533 -55.91344 26942 ft 303 kts 168°
2026-04-19 12:31 -16.35540 -55.90755 26942 ft 303 kts 168°
2026-04-19 12:31 -16.37575 -55.90157 26942 ft 303 kts 168°
2026-04-19 12:31 -16.39609 -55.89560 26943 ft 303 kts 168°
2026-04-19 12:31 -16.41640 -55.88964 26941 ft 303 kts 168°
2026-04-19 12:32 -16.43670 -55.88366 26943 ft 303 kts 168°
2026-04-19 12:32 -16.45700 -55.87771 26942 ft 303 kts 168°
2026-04-19 12:32 -16.47710 -55.87180 26943 ft 303 kts 168°
2026-04-19 12:32 -16.49747 -55.86581 26944 ft 303 kts 168°
2026-04-19 12:33 -16.51776 -55.85984 26940 ft 303 kts 168°
2026-04-19 12:33 -16.53788 -55.85393 26940 ft 303 kts 168°
2026-04-19 12:33 -16.55822 -55.84794 26940 ft 303 kts 168°
2026-04-19 12:33 -16.57855 -55.84197 26939 ft 303 kts 168°
2026-04-19 12:34 -16.59885 -55.83598 26947 ft 303 kts 168°
2026-04-19 12:34 -16.61917 -55.83000 26946 ft 303 kts 168°
2026-04-19 12:34 -16.63946 -55.82403 26944 ft 303 kts 168°
2026-04-19 12:34 -16.65975 -55.81805 26944 ft 303 kts 168°
2026-04-19 12:35 -16.68004 -55.81208 26943 ft 303 kts 168°
2026-04-19 12:35 -16.70015 -55.80615 26940 ft 303 kts 168°
2026-04-19 12:35 -16.72044 -55.80017 26940 ft 303 kts 168°
2026-04-19 12:35 -16.74080 -55.79418 26940 ft 303 kts 168°
2026-04-19 12:36 -16.76113 -55.78818 26944 ft 303 kts 168°
2026-04-19 12:36 -16.78120 -55.78226 26942 ft 303 kts 168°
2026-04-19 12:36 -16.80153 -55.77626 26942 ft 303 kts 168°
2026-04-19 12:36 -16.82183 -55.77028 26942 ft 303 kts 168°
2026-04-19 12:37 -16.84193 -55.76435 26942 ft 303 kts 168°
2026-04-19 12:37 -16.86230 -55.75834 26941 ft 303 kts 168°
2026-04-19 12:37 -16.88261 -55.75233 26943 ft 303 kts 168°
2026-04-19 12:37 -16.90295 -55.74633 26942 ft 303 kts 168°
2026-04-19 12:38 -16.92301 -55.74041 26943 ft 303 kts 168°
2026-04-19 12:38 -16.94330 -55.73441 26942 ft 303 kts 168°
2026-04-19 12:38 -16.96367 -55.72839 26942 ft 303 kts 168°
2026-04-19 12:38 -16.98372 -55.72247 26942 ft 303 kts 168°
2026-04-19 12:39 -17.00399 -55.71648 26940 ft 303 kts 168°
2026-04-19 12:39 -17.02430 -55.71047 26940 ft 303 kts 168°
2026-04-19 12:39 -17.04463 -55.70446 26940 ft 303 kts 168°
2026-04-19 12:39 -17.06498 -55.69845 26939 ft 303 kts 168°
2026-04-19 12:40 -17.08505 -55.69250 26941 ft 303 kts 168°
2026-04-19 12:40 -17.10537 -55.68649 26941 ft 303 kts 168°
2026-04-19 12:40 -17.12566 -55.68049 26941 ft 303 kts 168°
2026-04-19 12:40 -17.14600 -55.67446 26944 ft 303 kts 168°
2026-04-19 12:41 -17.16607 -55.66852 26945 ft 303 kts 168°
2026-04-19 12:41 -17.18640 -55.66249 26944 ft 303 kts 168°
2026-04-19 12:41 -17.20676 -55.65646 26944 ft 304 kts 168°
2026-04-19 12:41 -17.22717 -55.65042 26944 ft 304 kts 168°
2026-04-19 12:42 -17.24729 -55.64445 26940 ft 304 kts 168°
2026-04-19 12:42 -17.26762 -55.63843 26941 ft 304 kts 168°
2026-04-19 12:42 -17.28803 -55.63237 26940 ft 304 kts 168°
2026-04-19 12:42 -17.30845 -55.62631 26940 ft 304 kts 168°
2026-04-19 12:43 -17.32195 -55.62231 26942 ft 304 kts 168°
2026-04-19 12:43 -17.34899 -55.61428 26942 ft 304 kts 168°
2026-04-19 12:43 -17.36940 -55.60823 26942 ft 304 kts 168°
2026-04-19 12:43 -17.38293 -55.60421 26941 ft 304 kts 168°
2026-04-19 12:44 -17.40330 -55.59816 26940 ft 304 kts 168°
2026-04-19 12:44 -17.42368 -55.59211 26944 ft 304 kts 168°
2026-04-19 12:44 -17.44410 -55.58605 26944 ft 305 kts 168°
2026-04-19 12:44 -17.47119 -55.57800 26944 ft 305 kts 168°
2026-04-19 12:45 -17.48499 -55.57389 26946 ft 305 kts 168°
2026-04-19 12:45 -17.50520 -55.56788 26946 ft 305 kts 168°
2026-04-19 12:45 -17.52568 -55.56180 26946 ft 305 kts 168°
2026-04-19 12:45 -17.54618 -55.55569 26945 ft 305 kts 168°
2026-04-19 12:46 -17.56662 -55.54962 26943 ft 305 kts 168°
2026-04-19 12:46 -17.58682 -55.54361 26943 ft 305 kts 168°
2026-04-19 12:46 -17.60728 -55.53752 26943 ft 305 kts 168°
2026-04-19 12:46 -17.62773 -55.53143 26943 ft 306 kts 168°
2026-04-19 12:47 -17.64825 -55.52531 26944 ft 306 kts 168°
2026-04-19 12:47 -17.66882 -55.51920 26943 ft 306 kts 168°
2026-04-19 12:47 -17.68904 -55.51322 26946 ft 306 kts 168°
2026-04-19 12:47 -17.70958 -55.50714 26946 ft 306 kts 168°
2026-04-19 12:48 -17.73011 -55.50105 26940 ft 306 kts 168°
2026-04-19 12:48 -17.75041 -55.49502 26939 ft 306 kts 168°
2026-04-19 12:48 -17.77093 -55.48893 26939 ft 306 kts 168°
2026-04-19 12:48 -17.79153 -55.48282 26939 ft 306 kts 168°
2026-04-19 12:49 -17.81204 -55.47672 26942 ft 306 kts 168°
2026-04-19 12:49 -17.83229 -55.47072 26942 ft 306 kts 168°
2026-04-19 12:49 -17.85281 -55.46462 26941 ft 306 kts 168°
2026-04-19 12:49 -17.87336 -55.45851 26941 ft 306 kts 168°
2026-04-19 12:50 -17.89390 -55.45241 26940 ft 306 kts 168°
2026-04-19 12:50 -17.91417 -55.44637 26940 ft 306 kts 168°
2026-04-19 12:50 -17.93479 -55.44024 26939 ft 306 kts 168°
2026-04-19 12:50 -17.95532 -55.43414 26946 ft 306 kts 168°
2026-04-19 12:51 -17.97590 -55.42801 26946 ft 306 kts 168°
2026-04-19 12:51 -17.99616 -55.42199 26946 ft 307 kts 168°
2026-04-19 12:51 -18.01676 -55.41585 26946 ft 307 kts 168°
2026-04-19 12:51 -18.03732 -55.40973 26946 ft 307 kts 168°
2026-04-19 12:52 -18.05792 -55.40360 26944 ft 307 kts 168°
2026-04-19 12:52 -18.07824 -55.39754 26944 ft 307 kts 168°
2026-04-19 12:52 -18.09879 -55.39142 26944 ft 307 kts 168°
2026-04-19 12:52 -18.11941 -55.38528 26944 ft 307 kts 168°
2026-04-19 12:53 -18.14006 -55.37912 26945 ft 307 kts 168°
2026-04-19 12:53 -18.16037 -55.37306 26944 ft 307 kts 168°
2026-04-19 12:53 -18.18095 -55.36692 26944 ft 307 kts 168°
2026-04-19 12:53 -18.20155 -55.36078 26944 ft 307 kts 168°
2026-04-19 12:54 -18.22219 -55.35461 26948 ft 307 kts 168°
2026-04-19 12:54 -18.24277 -55.34848 26944 ft 307 kts 168°
2026-04-19 12:54 -18.26315 -55.34239 26943 ft 307 kts 168°
2026-04-19 12:54 -18.28372 -55.33625 26943 ft 307 kts 168°
2026-04-19 12:55 -18.30431 -55.33010 26942 ft 307 kts 168°
2026-04-19 12:55 -18.32493 -55.32394 26941 ft 307 kts 168°
2026-04-19 12:55 -18.34551 -55.31779 26942 ft 307 kts 168°
2026-04-19 12:55 -18.36611 -55.31163 26941 ft 307 kts 168°
2026-04-19 12:56 -18.38646 -55.30555 26940 ft 307 kts 168°
2026-04-19 12:56 -18.40710 -55.29937 26940 ft 307 kts 168°
2026-04-19 12:56 -18.42773 -55.29321 26940 ft 307 kts 168°
2026-04-19 12:56 -18.44833 -55.28704 26940 ft 307 kts 168°
2026-04-19 12:57 -18.46898 -55.28086 26941 ft 307 kts 168°
2026-04-19 12:57 -18.48929 -55.27478 26941 ft 307 kts 168°
2026-04-19 12:57 -18.50992 -55.26860 26941 ft 307 kts 168°
2026-04-19 12:57 -18.53060 -55.26240 26944 ft 307 kts 168°
2026-04-19 12:58 -18.55094 -55.25631 26941 ft 307 kts 168°
2026-04-19 12:58 -18.57158 -55.25013 26942 ft 307 kts 168°
2026-04-19 12:58 -18.59216 -55.24397 26941 ft 307 kts 168°
2026-04-19 12:58 -18.61274 -55.23779 26941 ft 307 kts 168°
2026-04-19 12:59 -18.63336 -55.23160 26940 ft 307 kts 168°
2026-04-19 12:59 -18.65396 -55.22542 26943 ft 307 kts 168°
2026-04-19 12:59 -18.67430 -55.21932 26943 ft 307 kts 168°
2026-04-19 12:59 -18.69489 -55.21315 26943 ft 307 kts 168°
2026-04-19 13:00 -18.71548 -55.20697 26942 ft 307 kts 168°
2026-04-19 13:00 -18.73607 -55.20079 26942 ft 307 kts 168°
2026-04-19 13:00 -18.75642 -55.19467 26949 ft 307 kts 169°
2026-04-19 13:00 -18.77699 -55.18850 26949 ft 307 kts 169°
2026-04-19 13:01 -18.79759 -55.18231 26950 ft 307 kts 169°
2026-04-19 13:01 -18.81821 -55.17610 26949 ft 307 kts 169°
2026-04-19 13:01 -18.83863 -55.16997 26949 ft 307 kts 169°
2026-04-19 13:01 -18.85927 -55.16376 26949 ft 307 kts 169°
2026-04-19 13:02 -18.87989 -55.15755 26951 ft 308 kts 168°
2026-04-19 13:02 -18.90055 -55.15134 26951 ft 308 kts 169°
2026-04-19 13:02 -18.92094 -55.14521 26951 ft 308 kts 169°
2026-04-19 13:02 -18.94161 -55.13899 26951 ft 308 kts 168°
2026-04-19 13:03 -18.96227 -55.13276 26949 ft 308 kts 168°
2026-04-19 13:03 -18.98288 -55.12655 26949 ft 308 kts 168°
2026-04-19 13:03 -19.00331 -55.12040 26949 ft 308 kts 168°
2026-04-19 13:03 -19.02397 -55.11418 26952 ft 308 kts 169°
2026-04-19 13:04 -19.04466 -55.10794 26954 ft 308 kts 169°
2026-04-19 13:04 -19.06533 -55.10171 26956 ft 308 kts 169°
2026-04-19 13:04 -19.08601 -55.09547 26957 ft 309 kts 169°
2026-04-19 13:04 -19.10675 -55.08921 26956 ft 309 kts 168°
2026-04-19 13:05 -19.12718 -55.08305 26955 ft 309 kts 168°
2026-04-19 13:05 -19.14792 -55.07679 26956 ft 309 kts 168°
2026-04-19 13:05 -19.16862 -55.07054 26956 ft 309 kts 168°
2026-04-19 13:05 -19.18936 -55.06428 26956 ft 309 kts 168°
2026-04-19 13:06 -19.21006 -55.05803 26958 ft 309 kts 168°
2026-04-19 13:06 -19.23049 -55.05185 26957 ft 309 kts 168°
2026-04-19 13:06 -19.25121 -55.04559 26957 ft 309 kts 169°
2026-04-19 13:06 -19.27199 -55.03931 26958 ft 309 kts 168°
2026-04-19 13:07 -19.29271 -55.03305 26960 ft 310 kts 169°
2026-04-19 13:07 -19.31346 -55.02677 26959 ft 309 kts 169°
2026-04-19 13:07 -19.33395 -55.02057 26959 ft 310 kts 169°
2026-04-19 13:07 -19.35471 -55.01424 26958 ft 310 kts 168°
2026-04-19 13:08 -19.37547 -55.00780 26957 ft 310 kts 168°
2026-04-19 13:08 -19.39622 -55.00137 26958 ft 310 kts 168°
2026-04-19 13:08 -19.41671 -54.99506 26957 ft 310 kts 168°
2026-04-19 13:08 -19.43748 -54.98867 26957 ft 310 kts 168°
2026-04-19 13:09 -19.45821 -54.98227 26958 ft 310 kts 168°
2026-04-19 13:09 -19.47890 -54.97589 26958 ft 309 kts 168°
2026-04-19 13:09 -19.49935 -54.96957 26958 ft 309 kts 168°
2026-04-19 13:09 -19.52007 -54.96317 27008 ft 307 kts 168°
2026-04-19 13:10 -19.54017 -54.95696 27381 ft 293 kts 169°
2026-04-19 13:10 -19.55934 -54.95103 27758 ft 281 kts 169°
2026-04-19 13:10 -19.57776 -54.94527 28126 ft 271 kts 170°
2026-04-19 13:10 -19.59537 -54.93980 28491 ft 261 kts 171°
2026-04-19 13:11 -19.61257 -54.93450 28866 ft 253 kts 171°
2026-04-19 13:11 -19.62918 -54.92937 29245 ft 244 kts 172°
2026-04-19 13:11 -19.64524 -54.92437 29634 ft 236 kts 172°
2026-04-19 13:11 -19.66056 -54.91961 29934 ft 231 kts 173°
2026-04-19 13:12 -19.67696 -54.91476 29481 ft 257 kts 173°
2026-04-19 13:12 -19.69507 -54.90931 28995 ft 281 kts 171°
2026-04-19 13:12 -19.71460 -54.90318 28507 ft 301 kts 169°
2026-04-19 13:12 -19.73507 -54.89681 28023 ft 317 kts 169°
2026-04-19 13:13 -19.75673 -54.89000 27538 ft 330 kts 168°
2026-04-19 13:13 -19.77900 -54.88302 27060 ft 333 kts 168°
2026-04-19 13:13 -19.80135 -54.87612 26581 ft 334 kts 168°
2026-04-19 13:13 -19.82363 -54.86943 26108 ft 332 kts 168°
2026-04-19 13:14 -19.84552 -54.86283 25646 ft 327 kts 168°
2026-04-19 13:14 -19.86724 -54.85624 25182 ft 322 kts 167°
2026-04-19 13:14 -19.88850 -54.84976 24732 ft 318 kts 167°
2026-04-19 13:14 -19.90971 -54.84339 24283 ft 314 kts 167°
2026-04-19 13:15 -19.93072 -54.83709 23839 ft 311 kts 166°
2026-04-19 13:15 -19.95145 -54.83085 23371 ft 308 kts 166°
2026-04-19 13:15 -19.97200 -54.82463 22851 ft 306 kts 165°
2026-04-19 13:15 -19.99251 -54.81843 22340 ft 306 kts 165°
2026-04-19 13:16 -20.01277 -54.81232 21846 ft 306 kts 165°
2026-04-19 13:16 -20.03326 -54.80619 21357 ft 305 kts 165°
2026-04-19 13:16 -20.05367 -54.80004 20873 ft 303 kts 165°
2026-04-19 13:16 -20.07399 -54.79388 20394 ft 301 kts 165°
2026-04-19 13:17 -20.09387 -54.78791 19929 ft 299 kts 165°
2026-04-19 13:17 -20.11354 -54.78091 19456 ft 296 kts 154°
2026-04-19 13:17 -20.13075 -54.76903 18986 ft 294 kts 140°
2026-04-19 13:17 -20.14543 -54.75400 18542 ft 291 kts 135°
2026-04-19 13:18 -20.15973 -54.73915 18079 ft 289 kts 136°
2026-04-19 13:18 -20.17431 -54.72411 17571 ft 293 kts 135°
2026-04-19 13:18 -20.18904 -54.70894 17070 ft 295 kts 136°
2026-04-19 13:18 -20.20382 -54.69374 16579 ft 295 kts 136°
2026-04-19 13:19 -20.21837 -54.67875 16102 ft 293 kts 136°
2026-04-19 13:19 -20.23477 -54.66604 15626 ft 292 kts 152°
2026-04-19 13:19 -20.25374 -54.65839 15159 ft 291 kts 166°
2026-04-19 13:19 -20.27391 -54.65617 14701 ft 291 kts 180°
2026-04-19 13:20 -20.29383 -54.65951 14245 ft 290 kts 195°
2026-04-19 13:20 -20.31203 -54.66799 13810 ft 289 kts 210°
2026-04-19 13:20 -20.32792 -54.68116 13303 ft 288 kts 221°
2026-04-19 13:20 -20.34263 -54.69558 12802 ft 286 kts 221°
2026-04-19 13:21 -20.35746 -54.70964 12315 ft 283 kts 220°
2026-04-19 13:21 -20.37186 -54.72346 11834 ft 280 kts 221°
2026-04-19 13:21 -20.38623 -54.73743 11358 ft 278 kts 221°
2026-04-19 13:21 -20.40056 -54.75127 10941 ft 277 kts 221°
2026-04-19 13:22 -20.41487 -54.76502 10472 ft 275 kts 222°
2026-04-19 13:22 -20.42895 -54.77863 10006 ft 269 kts 223°
2026-04-19 13:22 -20.44260 -54.79187 9522 ft 272 kts 221°
2026-04-19 13:22 -20.45700 -54.80544 9028 ft 278 kts 222°
2026-04-19 13:23 -20.47145 -54.81947 8526 ft 281 kts 223°
2026-04-19 13:23 -20.48596 -54.83366 8043 ft 283 kts 223°
2026-04-19 13:23 -20.50040 -54.84763 7562 ft 283 kts 223°
2026-04-19 13:23 -20.51499 -54.86170 7091 ft 281 kts 223°
2026-04-19 13:24 -20.52874 -54.87535 6612 ft 255 kts 225°
2026-04-19 13:24 -20.54098 -54.88740 6126 ft 230 kts 223°
2026-04-19 13:24 -20.55263 -54.89838 5626 ft 217 kts 223°
2026-04-19 13:24 -20.56427 -54.90825 5123 ft 214 kts 208°
2026-04-19 13:25 -20.57874 -54.91103 4818 ft 209 kts 171°
2026-04-19 13:25 -20.59107 -54.90451 4704 ft 193 kts 132°
2026-04-19 13:25 -20.59653 -54.89211 4634 ft 182 kts 93°
2026-04-19 13:25 -20.59642 -54.87893 4588 ft 176 kts 85°
2026-04-19 13:26 -20.59689 -54.86564 4550 ft 185 kts 94°
2026-04-19 13:26 -20.59834 -54.85186 4508 ft 192 kts 94°
2026-04-19 13:26 -20.59967 -54.83738 4471 ft 200 kts 92°
2026-04-19 13:26 -20.60085 -54.82244 4422 ft 202 kts 92°
2026-04-19 13:27 -20.59996 -54.80758 4229 ft 199 kts 72°
2026-04-19 13:27 -20.59446 -54.79556 3976 ft 166 kts 47°
2026-04-19 13:27 -20.58678 -54.78749 3963 ft 149 kts 43°
2026-04-19 13:27 -20.57917 -54.77979 3961 ft 150 kts 42°
2026-04-19 13:28 -20.57188 -54.77257 4006 ft 137 kts 39°
2026-04-19 13:28 -20.56505 -54.76603 3970 ft 126 kts 42°
2026-04-19 13:28 -20.55845 -54.75966 3838 ft 133 kts 40°
2026-04-19 13:28 -20.55141 -54.75277 3670 ft 141 kts 42°
2026-04-19 13:29 -20.54413 -54.74564 3491 ft 136 kts 42°
2026-04-19 13:29 -20.53760 -54.73931 3329 ft 118 kts 40°
2026-04-19 13:29 -20.53193 -54.73393 3203 ft 100 kts 42°
2026-04-19 13:29 -20.52710 -54.72932 3084 ft 96 kts 38°
2026-04-19 13:30 -20.52192 -54.72431 2950 ft 100 kts 41°
2026-04-19 13:30 -20.51687 -54.71934 2821 ft 98 kts 39°
2026-04-19 13:30 -20.50687 -54.70965 2593 ft 99 kts 39°
2026-04-19 13:31 -20.50181 -54.70474 2472 ft 101 kts 43°
2026-04-19 13:31 -20.49672 -54.69978 2337 ft 96 kts 41°
2026-04-19 13:31 -20.49193 -54.69517 2211 ft 90 kts 43°
2026-04-19 13:31 -20.48739 -54.69084 2080 ft 86 kts 43°
2026-04-19 13:32 -20.48315 -54.68661 1989 ft 83 kts 41°
2026-04-19 13:32 -20.47885 -54.68250 1876 ft 84 kts 41°
2026-04-19 13:32 -20.47473 -54.67853 1834 ft 71 kts 43°
2026-04-19 13:32 -20.47138 -54.67530 1832 ft 62 kts 42°
2026-04-19 13:33 -20.46842 -54.67245 1835 ft 44 kts 42°
2026-04-19 13:33 -20.46718 -54.67124 1834 ft 29 kts 43°
2026-04-19 13:33 -20.46520 -54.66935 1833 ft 32 kts 42°
2026-04-19 13:33 -20.46345 -54.66767 1832 ft 34 kts 41°
2026-04-19 13:34 -20.46236 -54.66662 1832 ft 22 kts 41°
2026-04-19 13:34 -20.46131 -54.66608 1833 ft 18 kts 339°
2026-04-19 13:34 -20.46006 -54.66662 1833 ft 18 kts 339°
2026-04-19 13:34 -20.45872 -54.66715 1834 ft 14 kts 340°
2026-04-19 13:35 -20.45837 -54.66803 1834 ft 19 kts 261°
2026-04-19 13:35 -20.45849 -54.66930 1834 ft 19 kts 265°
2026-04-19 13:35 -20.45860 -54.67065 1834 ft 18 kts 264°
2026-04-19 13:35 -20.45900 -54.67163 1834 ft 18 kts 220°
2026-04-19 13:36 -20.45915 -54.67215 1834 ft 7 kts 323°
2026-04-19 13:36 -20.45876 -54.67211 1834 ft 7 kts 43°
2026-04-19 13:36 -20.45840 -54.67178 1834 ft 6 kts
2026-04-19 13:36 -20.45826 -54.67189 1834 ft 1 kts 315°
2026-04-19 13:37 -20.45823 -54.67192 1834 ft 0 kts 316°